www.pogodaiklimat.ru

Погода и климат >> Архив погоды >> Россия >> Якутия >> Столб Остров


ПОГОДА на Столб Острове

  • Прогноз погоды на Столб Острове
  • Монитор погоды на Столб Острове
  • Климат города

АРХИВ ПОГОДЫ на Столб Острове

Время (UTC), дата Ветер
(напр.,м/с)
 
Видим.   Явления Облачность Т
(С)
Тd
(С)
f
(%)
Тe
(С)
Тes
(С)
Комфортность P
(гПа)
Po
(гПа)
Тmin
(С)
Tmax
(С)
R
(мм)
R24
(мм)
S
(см)
03 14.05 С 4 10 км слабый снег 10/0
[Cs]
-11.0 -13.0 85 -18 -14 1011.6 1009.0
06 14.05 С 4 10 км слабый снег 10/0
[Cs]
-10.7 -12.7 85 -18 -14 1012.0 1009.4
09 14.05 С 4 10 км слабый снег 10/0
[Cs]
-11.3 -12.6 90 -18 -17 1013.0 1010.4
12 14.05 С 2 20 км {снег} 10/0
[Ac lent Ci fib]
-12.0 -13.3 90 -17 -16 1014.3 1011.7 -10.2 0.5
15 14.05 СЗ 1 10 км слабый снег 10/0
[Ac As]
-12.6 -13.9 90 -15 -15 1014.7 1012.1
18 14.05 С 2 10 км слабый снег 10/0
[Ac As]
-12.1 -13.4 90 -17 -17 1015.0 1012.4
21 14.05 штиль 0 10 км слабый снег 10/0
[Ac As]
-11.4 -12.0 95 -12 -11 1015.5 1012.9
00 15.05 С 2 10 км слабый снег 10/0
[Ac As]
-10.3 -10.9 95 -15 -13 1016.1 1013.5 -12.8 1 10
03 15.05 СЗ 3 10 км слабый снег 10/0
[As op]
-9.3 -10.5 91 -15 -14 1016.1 1013.5
06 15.05 С 4 10 км слабый снег 10/0
[As op]
-8.4 -9.9 89 -15 -14 1015.9 1013.3
09 15.05 С 4 10 км слабый снег 10/0
[As op]
-9.0 -10.1 92 -16 -16 1016.1 1013.5
12 15.05 СЗ 3 10 км слабый снег 10/0
[As op]
-10.2 -11.5 90 -16 -16 1016.6 1014.0 -8.1 2
15 15.05 СЗ 3 10 км слабый снег 10/0
[As op]
-10.6 -11.9 90 -17 -17 1016.2 1013.6
18 15.05 С 2 10 км слабый снег 10/0
[As op]
-11.2 -12.5 90 -16 -16 1016.0 1013.4
21 15.05 штиль 0 20 км в посл. час снег 6/0
[Ac trans]
-10.1 -11.4 90 -10 -9 1016.0 1013.4
00 16.05 С 3 10 км слабый снег 10/0
[Ac As]
-8.9 -9.6 95 -15 -13 1016.0 1013.4 -11.2 2 11
03 16.05 С 4 10 км слабый снег 10/0
[Ac As]
-7.5 -8.5 93 -14 -13 1015.9 1013.3
06 16.05 З 4 10 км слабый снег 10/0
[Ac As]
-6.9 -8.6 88 -14 -12 1015.9 1013.3
09 16.05 С 2 10 км в посл. час снег 10/0
[Ac As]
-7.8 -9.2 90 -12 -11 1016.3 1013.7
12 16.05 штиль 0 50 км {снег} 10/0
[Ac As]
-10.2 -11.4 91 -11 -10 1016.3 1013.7 -6.9 1
15 16.05 штиль 0 20 км слабый снег 10/0
[Ac As]
-10.1 -11.4 90 -10 -10 1016.9 1014.3
18 16.05 СЗ 1 20 км {снег} 10/10 600 м
[Sc]
-10.4 -11.7 90 -13 -13 1016.9 1014.3
21 16.05 штиль 0 50 км 10/4 600 м
[Sc Ci fib]
-13.5 -14.8 90 -14 -12 1017.2 1014.6
00 17.05 З 1 50 км 10/10 600 м
[Sc]
-11.3 -12.6 90 -14 -14 1017.2 1014.6 -13.7 0.3 14
03 17.05 З 1 50 км 10/10 600 м
[Sc]
-8.1 -9.1 92 -11 -11 1017.0 1014.4
06 17.05 штиль 0 50 км 10/10 600 м
[Sc]
-6.7 -8.7 86 -8 -8 1017.0 1014.4
09 17.05 СЗ 1 50 км 8/8 600 м
[Sc]
-6.0 -8.3 84 -8 -8 1017.1 1014.6
12 17.05 С 1 50 км 10/10 600 м
[Sc]
-7.8 -10.0 84 -10 -10 1017.3 1014.7 -5.6
15 17.05 штиль 0 50 км 10/10 600 м
[Sc]
-10.1 -12.1 85 -10 -10 1017.0 1014.4
18 17.05 штиль 0 50 км 10/10 600 м
[Sc]
-10.2 -11.5 90 -11 -11 1016.8 1014.2
21 17.05 СЗ 3 50 км 10/10 600 м
[Sc]
-8.6 -9.7 92 -15 -15 1016.7 1014.1
00 18.05 З 3 50 км 10/3 600 м
[Sc Ac trans]
-9.6 -11.2 88 -16 -14 1016.2 1013.6 -10.5 14
03 18.05 СЗ 3 50 км 10/10 300 м
[Sc]
-8.8 -9.9 92 -15 -15 1015.5 1012.9
06 18.05 З 4 20 км 10/0
[Ac trans]
+6.9 -8.6 32 +4 +6 1015.1 1012.5
18 18.05 штиль 0 20 км 10/0
[Ac trans]
-7.6 -9.0 90 -8 -8 1013.5 1010.9
21 18.05 З 1 50 км 10/10
[Sc]
-10.8 -12.1 90 -13 -13 1013.7 1011.1
00 19.05 З 2 50 км 10/0
[Ac As]
-6.1 -8.0 86 -10 -9 1013.6 1011.1 -10.8 14
03 19.05 С 4 50 км 10/10
[Frnb]
-5.4 -6.8 90 -12 -12 1013.7 1011.3
06 19.05 С 2 10 км слабый снег 10/10 600 м
[Sc]
-3.9 -4.7 94 -8 -8 1019.2 1016.7
09 19.05 С 3 50 км 10/10 600 м
[Sc]
-2.8 -3.5 95 -8 -8 1019.5 1017.0
12 19.05 10 км 10/10 600 м
[Sc]
-6.9 -2.0 100 1019.5 1017.0
15 19.05 СЗ 1 50 км 10/0
[Ac As]
-7.6 -8.6 93 -10 -10 1019.5 1017.0
18 19.05 СВ 2 50 км 10/0
[Ac As]
-8.1 -9.9 87 -13 -12 1014.3 1011.8
21 19.05 СЗ 4 20 км 10/0
[Ac As]
-9.1 -10.7 88 -16 -16 1014.5 1011.9
00 20.05 С 4 20 км 10/0
[Ac As]
-8.0 -9.4 90 -15 -14 1014.9 1012.3 -9.3 0.0 14
03 20.05 С 4 20 км 10/0
[Ac As]
-6.1 -7.6 89 -13 -11 1014.8 1012.3
06 20.05 С 5 20 км 10/10 300 м
[Sc]
-6.8 -7.7 93 -14 -14 1016.2 1013.7
09 20.05 С 4 20 км 10/10 300 м
[Sc]
-6.6 -7.8 91 -13 -13 1016.0 1013.4
12 20.05 С 5 4000 м слабый снег 10/10 300 м
[Sc]
-7.1 -8.0 93 -15 -15 1016.9 1014.3 -5.6 0.5
15 20.05 СЗ 4 4000 м слабый снег 10/10 300 м
[Sc]
-7.5 -8.5 93 -14 -14 1017.3 1014.7
18 20.05 СЗ 4 4000 м слабый снег 10/10 300 м
[Sc]
-8.0 -9.0 92 -15 -15 1017.9 1015.3
21 20.05 СЗ 3 10 км слабый снег 10/10 300 м
[Sc]
-8.9 -10.0 92 -15 -15 1018.4 1015.8
00 21.05 СЗ 2 10 км слабый снег 10/10 300 м
[Sc]
-8.3 -9.3 92 -13 -13 1018.9 1016.3 -9.1 2 16

 

Местоположение метеостанции Столб Остров (Якутия, Россия): широта 72.40 долгота 126.30 высота над уровнем моря 20 м.

В архиве по умолчанию представлена погода на Столб Острове за последнюю неделю. Архивные данные за месяц целиком и за предыдущие месяцы, начиная с января 2011 года, Вы можете получить, выбрав интересующий диапазон дат из раскрывающегося списка и нажав кнопку "Ввод!".


*Определитесь, кто Вы:
робот инопланетянин человек

Внимание! Время в таблицах - всемирное. Для получения местного времени необходимо прибавить поправку, которая на Столб Острове равна 9 ч.

Смотрите также архив погоды в соседних городах и на ближайших метеорологических станциях:

Погода на Мысе Быков (Якутия, Россия) (105 км)
Погода в Тюмяти (Якутия, Россия) (109 км)
Погода в Тикси (Якутия, Россия) (128 км)
Погода в Кюсюре (Якутия, Россия) (195 км)
Погода в Усть-Оленеке (Якутия, Россия) (225 км)
Погода в Юбилейной (Якутия, Россия) (392 км)
Погода в Джарджане (Якутия, Россия) (417 км)
Погода в Саскылахе (Якутия, Россия) (421 км)
Погода в Усть-Куйге (Якутия, Россия) (426 км)
Погода в Анабаре (Якутия, Россия) (430 км)

Пояснения к столбцам:

Ветер - указаны скорость ветра в м/с - средняя за 10 мин, порывы в срок и между сроками (в фигурных скобках) и направление, откуда дует ветер: С - северный, СВ - северо-восточный, В - восточный, ЮВ - юго-восточный, Ю - южный, ЮЗ - юго-западный, З - западный, СЗ - северо-западный.
Видимость - горизонтальная дальность видимости в метрах или километрах. При видимости от 1 до 10 км при отсутствии осадков обычно наблюдается дымка, при ухудшении видимости до 1 км и менее - туман. В сухую погоду видимость может ухудшаться дымом, пылью или мглою.
Явления - указаны атмосферные явления, наблюдавшиеся в срок или в последний час перед сроком; фигурными скобками обозначены явления, наблюдавшиеся между сроками (за 1-3 часа до срока); квадратными скобками обозначены град или гололедные отложения с указанием их диаметра в мм.
Облачность - указаны через наклонную черту общая и нижняя облачность в баллах и высота нижней границы облаков в метрах; квадратными скобками обозначены формы облаков: Ci - перистые, Cs - перисто-слоистые, Cc - перисто-кучевые, Ac - высококучевые, As - высокослоистые, Sc - слоисто-кучевые, Ns - слоисто-дождевые, Cu - кучевые, Cb - кучево-дождевые. Подробнее классификацию облаков см. в Атласе облаков (PDF).
T - Температура воздуха - температура, измеренная на высоте 2 м над землей.
Td - Температура точки росы - температура, при понижении до которой содержащийся в воздухе водяной пар достигнет насыщения.
f - Относительная влажность воздуха - влажноcть воздуха, измеренная на высоте 2 м над землей.
Te - Эффективная температура - температура, которую ощущает одетый по сезону человек в тени. Характеристика душности погоды. При расчете учитывается влияние влажности воздуха и скорости ветра на теплоощущения человека.
Tes - Эффективная температура на солнце - температура, которую ощущает человек, с поправкой на солнечный нагрев. Характеристика знойности погоды. Зависит от высоты солнца над горизонтом, облачности и скорости ветра. Ночью, в пасмурную погоду, а также при ветре 12 м/с и более поправка равна нулю.
P - Атмосферное давление - приведенное к уровню моря атмосферное давление.
Po - Атмосферное давление - измеренное на уровне метеостанции атмосферное давление.
Tmin - Минимальная температура - минимум температуры воздуха на высоте 2 м над землей.
Tmax - Максимальная температура - максимум температуры воздуха на высоте 2 м над землей.
R - Количество осадков - Количество выпавших осадков за период времени, мм. При наведении курсора мыши на число - период времени, за который выпало указанное количество осадков.
R24 - Количество осадков - Количество выпавших осадков за 24 часа, мм.
S - Снежный покров - Высота снежного покрова, см. При наведении курсора мыши на число - состояние снежного покрова и степень покрытия местности в баллах.